Location: ????
(30.1475°N, 31.1342°E)
Time: 06:51:10
(UTC+00:00)

Cosmos 1633 Rocket - Pass Details

Date: 27 September 2022
Orbit: 607 x 622 km, 82.5° (Epoch: 28 November)

Event Time Altitude Azimuth Distance (km) Brightness Sun altitude
Rises 02:26:02 0° 352° (N) 2,869 6.5 -18.2°
Reaches altitude 10° 02:28:15 10° 351° (N) 1,961 5.6 -17.7°
Maximum altitude 02:32:35 78° 266° (W) 623 2.9 -16.8°
Drops below altitude 10° 02:36:53 10° 179° (S) 1,948 5.5 -15.8°
Sets 02:39:05 0° 178° (S) 2,849 6.4 -15.4°
